Weather History for Doylestown, PA

Change the Weather History Date:

Wednesday, October 30, 2013

  Actual Average (KTTN) Record (KTTN)
Temperature  
Mean Temperature 46 °F 50 °F  
Max Temperature 57 °F 61 °F 81 °F (1946)
Min Temperature 37 °F 40 °F 27 °F (1988)
Degree Days  
Heating Degree Days 19 15  
Month to date heating degree days 317  
Since 1 July heating degree days 382  
Cooling Degree Days 0 0  
Month to date cooling degree days 7  
Year to date cooling degree days 962  
Moisture  
Dew Point 43 °F    
Average Humidity 86    
Maximum Humidity 97    
Minimum Humidity 76    
Precipitation  
Precipitation 0.00 in 0.12 in 1.77 in (1935)
Month to date precipitation 4.06  
Year to date precipitation 39.31  
Sea Level Pressure  
Sea Level Pressure 30.27 in    
Wind  
Wind Speed 1 mph (SSW)    
Max Wind Speed 6 mph    
Max Gust Speed -    
Visibility 10 miles    
Events      
T = Trace of Precipitation, MM = Missing Value Source: NWS Daily Summary

Daily Weather History Graph

Daily Weather History Graph

Search for Another Location

Airport:

Trip Planner

Search our weather history database for the weather conditions in past years. The results will help you decide how hot, cold, wet, or windy it might be!

Date:

Astronomy

Oct. 30, 2013 Rise Set
Actual Time 7:28 AM EDT 5:59 PM EDT
Civil Twilight 6:59 AM EDT 6:27 PM EDT
Nautical Twilight 6:27 AM EDT 6:59 PM EDT
Astronomical Twilight 5:56 AM EDT 7:31 PM EDT
Moon 3:13 AM EDT (10/30) 3:44 PM EDT (10/30)
Length of Visible Light 11h 27m
Length of Day
10h 31m
Waning Crescent, 17% of the Moon is Illuminated
Oct 30
Waning Crescent
Nov 3
New
Nov 10
First Quarter
Nov 17
Full
Nov 25
Last Quarter

Hourly Weather History & Observations

Time (EDT) Temp. Windchill Dew Point Humidity Pressure Visibility Wind Dir Wind Speed Gust Speed Precip Events Conditions
12:54 AM 39.0 °F - 37.9 °F 96% 30.35 in 10.0 mi Calm Calm - N/A   Clear
1:54 AM 37.9 °F - 37.0 °F 97% 30.33 in 10.0 mi Calm Calm - N/A   Clear
2:23 AM 39.2 °F - 37.4 °F 93% 30.32 in 10.0 mi Calm Calm - N/A   Mostly Cloudy
2:36 AM 39.2 °F - 37.4 °F 93% 30.31 in 10.0 mi Calm Calm - N/A   Scattered Clouds
2:54 AM 39.9 °F - 37.9 °F 93% 30.32 in 10.0 mi Calm Calm - N/A   Scattered Clouds
3:04 AM 39.2 °F - 37.4 °F 93% 30.31 in 10.0 mi Calm Calm - N/A   Mostly Cloudy
3:26 AM 39.2 °F - 37.4 °F 93% 30.30 in 10.0 mi Calm Calm - N/A   Scattered Clouds
3:54 AM 39.9 °F - 37.9 °F 93% 30.31 in 10.0 mi Calm Calm - N/A   Clear
4:54 AM 41.0 °F - 36.0 °F 82% 30.28 in 10.0 mi Calm Calm - N/A   Clear
5:54 AM 39.9 °F - 36.0 °F 86% 30.29 in 10.0 mi Calm Calm - N/A   Clear
6:50 AM 41.0 °F - 37.4 °F 87% 30.29 in 10.0 mi Calm Calm - N/A   Overcast
6:54 AM 41.0 °F - 37.0 °F 86% 30.30 in 10.0 mi Calm Calm - N/A   Overcast
7:02 AM 41.0 °F - 37.4 °F 87% 30.28 in 10.0 mi Calm Calm - N/A   Overcast
7:09 AM 41.0 °F - 37.4 °F 87% 30.28 in 10.0 mi Calm Calm - N/A   Overcast
7:40 AM 42.8 °F - 37.4 °F 81% 30.28 in 10.0 mi Calm Calm - N/A   Overcast
7:54 AM 42.1 °F - 37.0 °F 82% 30.30 in 10.0 mi Calm Calm - N/A   Overcast
8:12 AM 42.8 °F 41.1 °F 37.4 °F 81% 30.29 in 10.0 mi NNE 3.5 mph - N/A   Overcast
8:24 AM 42.8 °F - 37.4 °F 81% 30.29 in 10.0 mi Calm Calm - N/A   Overcast
8:54 AM 44.1 °F - 37.9 °F 79% 30.30 in 10.0 mi Calm Calm - N/A   Overcast
9:05 AM 44.6 °F - 37.4 °F 76% 30.29 in 10.0 mi Calm Calm - N/A   Overcast
9:20 AM 44.6 °F - 37.4 °F 76% 30.29 in 10.0 mi Calm Calm - N/A   Overcast
9:34 AM 44.6 °F - 39.2 °F 81% 30.29 in 10.0 mi Calm Calm - N/A   Overcast
9:49 AM 44.6 °F - 39.2 °F 81% 30.29 in 10.0 mi Calm Calm - N/A   Overcast
9:54 AM 45.0 °F - 39.0 °F 80% 30.30 in 10.0 mi Calm Calm - N/A   Overcast
10:27 AM 48.2 °F - 42.8 °F 82% 30.27 in 10.0 mi South 3.5 mph - N/A   Overcast
10:31 AM 48.2 °F - 42.8 °F 82% 30.27 in 10.0 mi South 3.5 mph - N/A   Overcast
10:54 AM 50.0 °F - 44.1 °F 80% 30.28 in 10.0 mi Calm Calm - N/A   Overcast
11:19 AM 50.0 °F - 44.6 °F 82% 30.27 in 10.0 mi Calm Calm - N/A   Overcast
11:54 AM 51.1 °F - 46.0 °F 83% 30.28 in 10.0 mi Calm Calm - N/A   Overcast
12:09 PM 51.8 °F - 46.4 °F 82% 30.26 in 10.0 mi SW 3.5 mph - N/A   Mostly Cloudy
12:23 PM 53.6 °F - 48.2 °F 82% 30.25 in 10.0 mi South 5.8 mph - N/A   Mostly Cloudy
12:54 PM 55.0 °F - 48.9 °F 80% 30.25 in 10.0 mi SW 5.8 mph - N/A   Scattered Clouds
1:19 PM 55.4 °F - 50.0 °F 82% 30.23 in 10.0 mi SSW 3.5 mph - N/A   Mostly Cloudy
1:54 PM 55.9 °F - 50.0 °F 80% 30.22 in 10.0 mi Calm Calm - N/A   Overcast
2:54 PM 55.9 °F - 50.0 °F 80% 30.20 in 10.0 mi South 4.6 mph - N/A   Overcast
3:54 PM 55.9 °F - 51.1 °F 84% 30.19 in 10.0 mi SSW 4.6 mph - N/A   Overcast
4:54 PM 55.9 °F - 51.1 °F 84% 30.19 in 10.0 mi SSW 3.5 mph - N/A   Overcast
5:54 PM 55.0 °F - 52.0 °F 89% 30.20 in 10.0 mi Variable 4.6 mph - N/A   Overcast
6:54 PM 54.0 °F - 51.1 °F 90% 30.21 in 10.0 mi South 3.5 mph - N/A   Overcast
7:54 PM 53.1 °F - 52.0 °F 96% 30.23 in 10.0 mi Variable 3.5 mph - N/A   Overcast
8:54 PM 53.1 °F - 52.0 °F 96% 30.23 in 9.0 mi Calm Calm - N/A   Overcast
9:54 PM 53.1 °F - 52.0 °F 96% 30.24 in 9.0 mi Calm Calm - N/A   Overcast
10:54 PM 53.1 °F - 52.0 °F 96% 30.24 in 9.0 mi Calm Calm - N/A   Overcast
11:54 PM 53.1 °F - 52.0 °F 96% 30.23 in 8.0 mi Calm Calm - N/A   Overcast